Year,Month,Day,Hour,Minute,Value (Times are PST for temperature in C)
2013,07,28,00,00,15.30
2013,07,28,00,01,15.30
2013,07,28,00,02,15.30
2013,07,28,00,03,15.30
2013,07,28,00,04,15.30
2013,07,28,00,05,15.30
2013,07,28,00,06,15.30
2013,07,28,00,07,15.30
2013,07,28,00,08,15.30
2013,07,28,00,09,15.30
2013,07,28,00,10,15.30
2013,07,28,00,11,15.20
2013,07,28,00,12,15.20
2013,07,28,00,13,15.20
2013,07,28,00,14,15.20
2013,07,28,00,15,15.20
2013,07,28,00,16,15.10
2013,07,28,00,17,15.10
2013,07,28,00,18,15.10
2013,07,28,00,19,15.10
2013,07,28,00,20,15.00
2013,07,28,00,21,15.00
2013,07,28,00,22,15.00
2013,07,28,00,23,15.00
2013,07,28,00,24,14.90
2013,07,28,00,25,14.90
2013,07,28,00,26,14.90
2013,07,28,00,27,14.90
2013,07,28,00,28,14.80
2013,07,28,00,29,14.80
2013,07,28,00,30,14.80
2013,07,28,00,31,14.80
2013,07,28,00,32,14.80
2013,07,28,00,33,14.80
2013,07,28,00,34,14.80
2013,07,28,00,35,14.80
2013,07,28,00,36,14.80
2013,07,28,00,37,14.80
2013,07,28,00,38,14.70
2013,07,28,00,39,14.70
2013,07,28,00,40,14.70
2013,07,28,00,41,14.70
2013,07,28,00,42,14.70
2013,07,28,00,43,14.60
2013,07,28,00,44,14.60
2013,07,28,00,45,14.60
2013,07,28,00,46,14.60
2013,07,28,00,47,14.60
2013,07,28,00,48,14.60
2013,07,28,00,49,14.60
2013,07,28,00,50,14.60
2013,07,28,00,51,14.60
2013,07,28,00,52,14.60
2013,07,28,00,53,14.60
2013,07,28,00,54,14.60
2013,07,28,00,55,14.60
2013,07,28,00,56,14.60
2013,07,28,00,57,14.60
2013,07,28,00,58,14.50
2013,07,28,00,59,14.50
2013,07,28,01,00,14.50
2013,07,28,01,01,14.50
2013,07,28,01,02,14.50
2013,07,28,01,03,14.50
2013,07,28,01,04,14.50
2013,07,28,01,05,14.40
2013,07,28,01,06,14.40
2013,07,28,01,07,14.30
2013,07,28,01,08,14.30
2013,07,28,01,09,14.20
2013,07,28,01,10,14.20
2013,07,28,01,11,14.20
2013,07,28,01,12,14.20
2013,07,28,01,13,14.20
2013,07,28,01,14,14.20
2013,07,28,01,15,14.20
2013,07,28,01,16,14.20
2013,07,28,01,17,14.20
2013,07,28,01,18,14.20
2013,07,28,01,19,14.20
2013,07,28,01,20,14.20
2013,07,28,01,21,14.10
2013,07,28,01,22,14.10
2013,07,28,01,23,14.10
2013,07,28,01,24,14.10
2013,07,28,01,25,14.10
2013,07,28,01,26,14.10
2013,07,28,01,27,14.10
2013,07,28,01,28,14.10
2013,07,28,01,29,14.00
2013,07,28,01,30,14.00
2013,07,28,01,31,14.00
2013,07,28,01,32,14.00
2013,07,28,01,33,13.90
2013,07,28,01,34,13.90
2013,07,28,01,35,13.90
2013,07,28,01,36,13.90
2013,07,28,01,37,13.90
2013,07,28,01,38,13.90
2013,07,28,01,39,13.90
2013,07,28,01,40,13.80
2013,07,28,01,41,13.80
2013,07,28,01,42,13.80
2013,07,28,01,43,13.80
2013,07,28,01,44,13.70
2013,07,28,01,45,13.70
2013,07,28,01,46,13.70
2013,07,28,01,47,13.70
2013,07,28,01,48,13.70
2013,07,28,01,49,13.70
2013,07,28,01,50,13.70
2013,07,28,01,51,13.70
2013,07,28,01,52,13.60
2013,07,28,01,53,13.60
2013,07,28,01,54,13.60
2013,07,28,01,55,13.50
2013,07,28,01,56,13.50
2013,07,28,01,57,13.40
2013,07,28,01,58,13.40
2013,07,28,01,59,13.30
2013,07,28,02,00,13.30
2013,07,28,02,01,13.30
2013,07,28,02,02,13.20
2013,07,28,02,03,13.20
2013,07,28,02,04,13.20
2013,07,28,02,05,13.10
2013,07,28,02,06,13.00
2013,07,28,02,07,13.00
2013,07,28,02,08,12.90
2013,07,28,02,09,12.90
2013,07,28,02,10,12.90
2013,07,28,02,11,12.90
2013,07,28,02,12,12.80
2013,07,28,02,13,12.80
2013,07,28,02,14,12.80
2013,07,28,02,15,12.80
2013,07,28,02,16,12.80
2013,07,28,02,17,12.80
2013,07,28,02,18,12.80
2013,07,28,02,19,12.80
2013,07,28,02,20,12.80
2013,07,28,02,21,12.80
2013,07,28,02,22,12.80
2013,07,28,02,23,12.70
2013,07,28,02,24,12.70
2013,07,28,02,25,12.70
2013,07,28,02,26,12.70
2013,07,28,02,27,12.70
2013,07,28,02,28,12.60
2013,07,28,02,29,12.60
2013,07,28,02,30,12.60
2013,07,28,02,31,12.60
2013,07,28,02,32,12.60
2013,07,28,02,33,12.60
2013,07,28,02,34,12.50
2013,07,28,02,35,12.50
2013,07,28,02,36,12.50
2013,07,28,02,37,12.50
2013,07,28,02,38,12.50
2013,07,28,02,39,12.50
2013,07,28,02,40,12.50
2013,07,28,02,41,12.50
2013,07,28,02,42,12.40
2013,07,28,02,43,12.40
2013,07,28,02,44,12.40
2013,07,28,02,45,12.40
2013,07,28,02,46,12.40
2013,07,28,02,47,12.30
2013,07,28,02,48,12.30
2013,07,28,02,49,12.30
2013,07,28,02,50,12.30
2013,07,28,02,51,12.30
2013,07,28,02,52,12.30
2013,07,28,02,53,12.20
2013,07,28,02,54,12.20
2013,07,28,02,55,12.20
2013,07,28,02,56,12.20
2013,07,28,02,57,12.10
2013,07,28,02,58,12.10
2013,07,28,02,59,12.10
2013,07,28,03,00,12.10
2013,07,28,03,01,12.10
2013,07,28,03,02,12.00
2013,07,28,03,03,12.00
2013,07,28,03,04,12.00
2013,07,28,03,05,12.00
2013,07,28,03,06,12.00
2013,07,28,03,07,12.00
2013,07,28,03,08,12.00
2013,07,28,03,09,11.90
2013,07,28,03,10,11.90
2013,07,28,03,11,11.90
2013,07,28,03,12,11.90
2013,07,28,03,13,11.90
2013,07,28,03,14,11.90
2013,07,28,03,15,11.90
2013,07,28,03,16,11.90
2013,07,28,03,17,11.90
2013,07,28,03,18,11.90
2013,07,28,03,19,11.90
2013,07,28,03,20,11.90
2013,07,28,03,21,11.90
2013,07,28,03,22,11.90
2013,07,28,03,23,11.90
2013,07,28,03,24,11.90
2013,07,28,03,25,11.80
2013,07,28,03,26,11.80
2013,07,28,03,27,11.80
2013,07,28,03,28,11.80
2013,07,28,03,29,11.80
2013,07,28,03,30,11.80
2013,07,28,03,31,11.80
2013,07,28,03,32,11.80
2013,07,28,03,33,11.80
2013,07,28,03,34,11.80
2013,07,28,03,35,11.80
2013,07,28,03,36,11.80
2013,07,28,03,37,11.80
2013,07,28,03,38,11.80
2013,07,28,03,39,11.70
2013,07,28,03,40,11.70
2013,07,28,03,41,11.70
2013,07,28,03,42,11.70
2013,07,28,03,43,11.70
2013,07,28,03,44,11.70
2013,07,28,03,45,11.70
2013,07,28,03,46,11.70
2013,07,28,03,47,11.70
2013,07,28,03,48,11.70
2013,07,28,03,49,11.70
2013,07,28,03,50,11.60
2013,07,28,03,51,11.60
2013,07,28,03,52,11.60
2013,07,28,03,53,11.60
2013,07,28,03,54,11.60
2013,07,28,03,55,11.60
2013,07,28,03,56,11.60
2013,07,28,03,57,11.60
2013,07,28,03,58,11.50
2013,07,28,03,59,11.40
2013,07,28,04,00,11.40
2013,07,28,04,01,11.40
2013,07,28,04,02,11.40
2013,07,28,04,03,11.40
2013,07,28,04,04,11.40
2013,07,28,04,05,11.40
2013,07,28,04,06,11.40
2013,07,28,04,07,11.40
2013,07,28,04,08,11.40
2013,07,28,04,09,11.30
2013,07,28,04,10,11.30
2013,07,28,04,11,11.30
2013,07,28,04,12,11.30
2013,07,28,04,13,11.30
2013,07,28,04,14,11.30
2013,07,28,04,15,11.30
2013,07,28,04,16,11.30
2013,07,28,04,17,11.30
2013,07,28,04,18,11.30
2013,07,28,04,19,11.30
2013,07,28,04,20,11.30
2013,07,28,04,21,11.30
2013,07,28,04,22,11.30
2013,07,28,04,23,11.30
2013,07,28,04,24,11.30
2013,07,28,04,25,11.30
2013,07,28,04,26,11.30
2013,07,28,04,27,11.30
2013,07,28,04,28,11.30
2013,07,28,04,29,11.30
2013,07,28,04,30,11.30
2013,07,28,04,31,11.30
2013,07,28,04,32,11.30
2013,07,28,04,33,11.30
2013,07,28,04,34,11.30
2013,07,28,04,35,11.30
2013,07,28,04,36,11.30
2013,07,28,04,37,11.30
2013,07,28,04,38,11.30
2013,07,28,04,39,11.30
2013,07,28,04,40,11.30
2013,07,28,04,41,11.20
2013,07,28,04,42,11.20
2013,07,28,04,43,11.20
2013,07,28,04,44,11.20
2013,07,28,04,45,11.20
2013,07,28,04,46,11.20
2013,07,28,04,47,11.20
2013,07,28,04,48,11.20
2013,07,28,04,49,11.20
2013,07,28,04,50,11.20
2013,07,28,04,51,11.20
2013,07,28,04,52,11.20
2013,07,28,04,53,11.20
2013,07,28,04,54,11.10
2013,07,28,04,55,11.10
2013,07,28,04,56,11.10
2013,07,28,04,57,11.10
2013,07,28,04,58,11.10
2013,07,28,04,59,11.10
2013,07,28,05,00,11.10
2013,07,28,05,01,11.10
2013,07,28,05,02,11.10
2013,07,28,05,03,11.10
2013,07,28,05,04,11.10
2013,07,28,05,05,11.10
2013,07,28,05,06,11.10
2013,07,28,05,07,11.10
2013,07,28,05,08,11.10
2013,07,28,05,09,11.10
2013,07,28,05,10,11.10
2013,07,28,05,11,11.10
2013,07,28,05,12,11.10
2013,07,28,05,13,11.10
2013,07,28,05,14,11.10
2013,07,28,05,15,11.10
2013,07,28,05,16,11.10
2013,07,28,05,17,11.10
2013,07,28,05,18,11.10
2013,07,28,05,19,11.10
2013,07,28,05,20,11.10
2013,07,28,05,21,11.10
2013,07,28,05,22,11.10
2013,07,28,05,23,11.10
2013,07,28,05,24,11.10
2013,07,28,05,25,11.10
2013,07,28,05,26,11.00
2013,07,28,05,27,10.90
2013,07,28,05,28,10.90
2013,07,28,05,29,10.90
2013,07,28,05,30,10.90
2013,07,28,05,31,10.90
2013,07,28,05,32,10.90
2013,07,28,05,33,10.90
2013,07,28,05,34,10.90
2013,07,28,05,35,10.90
2013,07,28,05,36,10.90
2013,07,28,05,37,10.90
2013,07,28,05,38,10.90
2013,07,28,05,39,10.90
2013,07,28,05,40,10.90
2013,07,28,05,41,10.90
2013,07,28,05,42,10.90
2013,07,28,05,43,10.90
2013,07,28,05,44,10.90
2013,07,28,05,45,10.90
2013,07,28,05,46,10.90
2013,07,28,05,47,10.90
2013,07,28,05,48,10.90
2013,07,28,05,49,10.90
2013,07,28,05,50,10.90
2013,07,28,05,51,10.90
2013,07,28,05,52,10.90
2013,07,28,05,53,10.90
2013,07,28,05,54,10.80
2013,07,28,05,55,10.80
2013,07,28,05,56,10.80
2013,07,28,05,57,10.80
2013,07,28,05,58,10.80
2013,07,28,05,59,10.80
2013,07,28,06,00,10.80
2013,07,28,06,01,10.80
2013,07,28,06,02,10.80
2013,07,28,06,03,10.90
2013,07,28,06,04,10.90
2013,07,28,06,05,10.90
2013,07,28,06,06,10.90
2013,07,28,06,07,10.90
2013,07,28,06,08,10.90
2013,07,28,06,09,10.90
2013,07,28,06,10,10.90
2013,07,28,06,11,11.00
2013,07,28,06,12,11.10
2013,07,28,06,13,11.10
2013,07,28,06,14,11.10
2013,07,28,06,15,11.10
2013,07,28,06,16,11.10
2013,07,28,06,17,11.20
2013,07,28,06,18,11.20
2013,07,28,06,19,11.20
2013,07,28,06,20,11.30
2013,07,28,06,21,11.30
2013,07,28,06,22,11.40
2013,07,28,06,23,11.40
2013,07,28,06,24,11.40
2013,07,28,06,25,11.50
2013,07,28,06,26,11.60
2013,07,28,06,27,11.60
2013,07,28,06,28,11.60
2013,07,28,06,29,11.70
2013,07,28,06,30,11.70
2013,07,28,06,31,11.80
2013,07,28,06,32,11.80
2013,07,28,06,33,11.80
2013,07,28,06,34,11.90
2013,07,28,06,35,12.00
2013,07,28,06,36,12.00
2013,07,28,06,37,12.10
2013,07,28,06,38,12.20
2013,07,28,06,39,12.30
2013,07,28,06,40,12.30
2013,07,28,06,41,12.40
2013,07,28,06,42,12.50
2013,07,28,06,43,12.50
2013,07,28,06,44,12.60
2013,07,28,06,45,12.70
2013,07,28,06,46,12.80
2013,07,28,06,47,12.90
2013,07,28,06,48,13.00
2013,07,28,06,49,13.00
2013,07,28,06,50,13.10
2013,07,28,06,51,13.20
2013,07,28,06,52,13.30
2013,07,28,06,53,13.30
2013,07,28,06,54,13.40
2013,07,28,06,55,13.50
2013,07,28,06,56,13.60
2013,07,28,06,57,13.70
2013,07,28,06,58,13.80
2013,07,28,06,59,13.90
2013,07,28,07,00,13.90
2013,07,28,07,01,14.00
2013,07,28,07,02,14.10
2013,07,28,07,03,14.20
2013,07,28,07,04,14.20
2013,07,28,07,05,14.30
2013,07,28,07,06,14.40
2013,07,28,07,07,14.40
2013,07,28,07,08,14.50
2013,07,28,07,09,14.60
2013,07,28,07,10,14.60
2013,07,28,07,11,14.70
2013,07,28,07,12,14.80
2013,07,28,07,13,14.90
2013,07,28,07,14,15.00
2013,07,28,07,15,15.10
2013,07,28,07,16,15.20
2013,07,28,07,17,15.20
2013,07,28,07,18,15.30
2013,07,28,07,19,15.30
2013,07,28,07,20,15.40
2013,07,28,07,21,15.50
2013,07,28,07,22,15.50
2013,07,28,07,23,15.50
2013,07,28,07,24,15.40
2013,07,28,07,25,15.40
2013,07,28,07,26,15.40
2013,07,28,07,27,15.50
2013,07,28,07,28,15.50
2013,07,28,07,29,15.40
2013,07,28,07,30,15.40
2013,07,28,07,31,15.50
2013,07,28,07,32,15.50
2013,07,28,07,33,15.60
2013,07,28,07,34,15.70
2013,07,28,07,35,15.80
2013,07,28,07,36,15.80
2013,07,28,07,37,15.90
2013,07,28,07,38,16.00
2013,07,28,07,39,16.10
2013,07,28,07,40,16.10
2013,07,28,07,41,16.20
2013,07,28,07,42,16.20
2013,07,28,07,43,16.30
2013,07,28,07,44,16.30
2013,07,28,07,45,16.40
2013,07,28,07,46,16.40
2013,07,28,07,47,16.50
2013,07,28,07,48,16.60
2013,07,28,07,49,16.60
2013,07,28,07,50,16.60
2013,07,28,07,51,16.50
2013,07,28,07,52,16.40
2013,07,28,07,53,16.40
2013,07,28,07,54,16.40
2013,07,28,07,55,16.40
2013,07,28,07,56,16.40
2013,07,28,07,57,16.40
2013,07,28,07,58,16.40
2013,07,28,07,59,16.40
2013,07,28,08,00,16.40
2013,07,28,08,01,16.40
2013,07,28,08,02,16.30
2013,07,28,08,03,16.30
2013,07,28,08,04,16.30
2013,07,28,08,05,16.20
2013,07,28,08,06,16.20
2013,07,28,08,07,16.20
2013,07,28,08,08,16.20
2013,07,28,08,09,16.20
2013,07,28,08,10,16.20
2013,07,28,08,11,16.20
2013,07,28,08,12,16.20
2013,07,28,08,13,16.20
2013,07,28,08,14,16.20
2013,07,28,08,15,16.30
2013,07,28,08,16,16.40
2013,07,28,08,17,16.40
2013,07,28,08,18,16.30
2013,07,28,08,19,16.30
2013,07,28,08,20,16.30
2013,07,28,08,21,16.40
2013,07,28,08,22,16.30
2013,07,28,08,23,16.30
2013,07,28,08,24,16.30
2013,07,28,08,25,16.30
2013,07,28,08,26,16.40
2013,07,28,08,27,16.40
2013,07,28,08,28,16.40
2013,07,28,08,29,16.50
2013,07,28,08,30,16.60
2013,07,28,08,31,16.50
2013,07,28,08,32,16.40
2013,07,28,08,33,16.40
2013,07,28,08,34,16.30
2013,07,28,08,35,16.40
2013,07,28,08,36,16.40
2013,07,28,08,37,16.30
2013,07,28,08,38,16.30
2013,07,28,08,39,16.20
2013,07,28,08,40,16.20
2013,07,28,08,41,16.30
2013,07,28,08,42,16.30
2013,07,28,08,43,16.40
2013,07,28,08,44,16.40
2013,07,28,08,45,16.40
2013,07,28,08,46,16.40
2013,07,28,08,47,16.40
2013,07,28,08,48,16.40
2013,07,28,08,49,16.40
2013,07,28,08,50,16.50
2013,07,28,08,51,16.40
2013,07,28,08,52,16.50
2013,07,28,08,53,16.60
2013,07,28,08,54,16.70
2013,07,28,08,55,16.80
2013,07,28,08,56,16.90
2013,07,28,08,57,17.00
2013,07,28,08,58,17.00
2013,07,28,08,59,17.20
2013,07,28,09,00,17.30
2013,07,28,09,01,17.30
2013,07,28,09,02,17.30
2013,07,28,09,03,17.30
2013,07,28,09,04,17.30
2013,07,28,09,05,17.30
2013,07,28,09,06,17.30
2013,07,28,09,07,17.30
2013,07,28,09,08,17.30
2013,07,28,09,09,17.30
2013,07,28,09,10,17.20
2013,07,28,09,11,17.20
2013,07,28,09,12,17.20
2013,07,28,09,13,17.20
2013,07,28,09,14,17.30
2013,07,28,09,15,17.30
2013,07,28,09,16,17.30
2013,07,28,09,17,17.20
2013,07,28,09,18,17.20
2013,07,28,09,19,17.30
2013,07,28,09,20,17.30
2013,07,28,09,21,17.30
2013,07,28,09,22,17.30
2013,07,28,09,23,17.30
2013,07,28,09,24,17.20
2013,07,28,09,25,17.20
2013,07,28,09,26,17.20
2013,07,28,09,27,17.20
2013,07,28,09,28,17.20
2013,07,28,09,29,17.10
2013,07,28,09,30,17.10
2013,07,28,09,31,17.10
2013,07,28,09,32,17.10
2013,07,28,09,33,17.20
2013,07,28,09,34,17.30
2013,07,28,09,35,17.30
2013,07,28,09,36,17.30
2013,07,28,09,37,17.10
2013,07,28,09,38,17.00
2013,07,28,09,39,16.90
2013,07,28,09,40,16.90
2013,07,28,09,41,16.90
2013,07,28,09,42,16.90
2013,07,28,09,43,16.80
2013,07,28,09,44,16.70
2013,07,28,09,45,16.70
2013,07,28,09,46,16.60
2013,07,28,09,47,16.60
2013,07,28,09,48,16.70
2013,07,28,09,49,16.80
2013,07,28,09,50,16.90
2013,07,28,09,51,16.90
2013,07,28,09,52,16.90
2013,07,28,09,53,16.90
2013,07,28,09,54,16.90
2013,07,28,09,55,16.90
2013,07,28,09,56,17.00
2013,07,28,09,57,17.00
2013,07,28,09,58,17.00
2013,07,28,09,59,16.90
2013,07,28,10,00,17.00
2013,07,28,10,01,17.00
2013,07,28,10,02,17.00
2013,07,28,10,03,17.10
2013,07,28,10,04,17.10
2013,07,28,10,05,17.10
2013,07,28,10,06,17.20
2013,07,28,10,07,17.30
2013,07,28,10,08,17.30
2013,07,28,10,09,17.30
2013,07,28,10,10,17.30
2013,07,28,10,11,17.30
2013,07,28,10,12,17.20
2013,07,28,10,13,17.20
2013,07,28,10,14,17.20
2013,07,28,10,15,17.10
2013,07,28,10,16,17.10
2013,07,28,10,17,17.10
2013,07,28,10,18,17.10
2013,07,28,10,19,17.20
2013,07,28,10,20,17.30
2013,07,28,10,21,17.30
2013,07,28,10,22,17.20
2013,07,28,10,23,17.20
2013,07,28,10,24,17.30
2013,07,28,10,25,17.30
2013,07,28,10,26,17.30
2013,07,28,10,27,17.20
2013,07,28,10,28,17.10
2013,07,28,10,29,17.00
2013,07,28,10,30,16.90
2013,07,28,10,31,16.90
2013,07,28,10,32,16.90
2013,07,28,10,33,16.80
2013,07,28,10,34,16.70
2013,07,28,10,35,16.70
2013,07,28,10,36,16.70
2013,07,28,10,37,16.70
2013,07,28,10,38,16.70
2013,07,28,10,39,16.70
2013,07,28,10,40,16.70
2013,07,28,10,41,16.80
2013,07,28,10,42,16.80
2013,07,28,10,43,16.70
2013,07,28,10,44,16.70
2013,07,28,10,45,16.60
2013,07,28,10,46,16.60
2013,07,28,10,47,16.70
2013,07,28,10,48,16.70
2013,07,28,10,49,16.70
2013,07,28,10,50,16.70
2013,07,28,10,51,16.70
2013,07,28,10,52,16.70
2013,07,28,10,53,16.70
2013,07,28,10,54,16.70
2013,07,28,10,55,16.70
2013,07,28,10,56,16.80
2013,07,28,10,57,16.90
2013,07,28,10,58,16.90
2013,07,28,10,59,16.90
2013,07,28,11,00,16.90
2013,07,28,11,01,16.90
2013,07,28,11,02,16.80
2013,07,28,11,03,16.70
2013,07,28,11,04,16.70
2013,07,28,11,05,16.70
2013,07,28,11,06,16.70
2013,07,28,11,07,16.80
2013,07,28,11,08,16.90
2013,07,28,11,09,17.00
2013,07,28,11,10,17.00
2013,07,28,11,11,17.00
2013,07,28,11,12,17.10
2013,07,28,11,13,17.00
2013,07,28,11,14,16.90
2013,07,28,11,15,16.80
2013,07,28,11,16,16.90
2013,07,28,11,17,16.90
2013,07,28,11,18,16.90
2013,07,28,11,19,17.00
2013,07,28,11,20,17.10
2013,07,28,11,21,17.30
2013,07,28,11,22,17.30
2013,07,28,11,23,17.30
2013,07,28,11,24,17.20
2013,07,28,11,25,17.00
2013,07,28,11,26,16.90
2013,07,28,11,27,16.80
2013,07,28,11,28,16.70
2013,07,28,11,29,16.70
2013,07,28,11,30,16.70
2013,07,28,11,31,16.70
2013,07,28,11,32,16.70
2013,07,28,11,33,16.80
2013,07,28,11,34,17.00
2013,07,28,11,35,17.00
2013,07,28,11,36,17.00
2013,07,28,11,37,17.00
2013,07,28,11,38,17.00
2013,07,28,11,39,17.10
2013,07,28,11,40,17.20
2013,07,28,11,41,17.20
2013,07,28,11,42,17.20
2013,07,28,11,43,17.10
2013,07,28,11,44,17.10
2013,07,28,11,45,17.10
2013,07,28,11,46,17.10
2013,07,28,11,47,17.20
2013,07,28,11,48,17.30
2013,07,28,11,49,17.30
2013,07,28,11,50,17.30
2013,07,28,11,51,17.30
2013,07,28,11,52,17.40
2013,07,28,11,53,17.50
2013,07,28,11,54,17.60
2013,07,28,11,55,17.80
2013,07,28,11,56,17.90
2013,07,28,11,57,18.10
2013,07,28,11,58,18.00
2013,07,28,11,59,18.00
2013,07,28,12,00,18.10
2013,07,28,12,01,18.10
2013,07,28,12,02,18.10
2013,07,28,12,03,18.10
2013,07,28,12,04,18.00
2013,07,28,12,05,17.90
2013,07,28,12,06,17.80
2013,07,28,12,07,17.70
2013,07,28,12,08,17.70
2013,07,28,12,09,17.60
2013,07,28,12,10,17.60
2013,07,28,12,11,17.60
2013,07,28,12,12,17.50
2013,07,28,12,13,17.50
2013,07,28,12,14,17.30
2013,07,28,12,15,17.30
2013,07,28,12,16,17.30
2013,07,28,12,17,17.40
2013,07,28,12,18,17.50
2013,07,28,12,19,17.50
2013,07,28,12,20,17.50
2013,07,28,12,21,17.40
2013,07,28,12,22,17.40
2013,07,28,12,23,17.50
2013,07,28,12,24,17.50
2013,07,28,12,25,17.40
2013,07,28,12,26,17.30
2013,07,28,12,27,17.30
2013,07,28,12,28,17.30
2013,07,28,12,29,17.30
2013,07,28,12,30,17.30
2013,07,28,12,31,17.30
2013,07,28,12,32,17.30
2013,07,28,12,33,17.50
2013,07,28,12,34,17.50
2013,07,28,12,35,17.50
2013,07,28,12,36,17.30
2013,07,28,12,37,17.10
2013,07,28,12,38,17.00
2013,07,28,12,39,17.00
2013,07,28,12,40,17.10
2013,07,28,12,41,17.10
2013,07,28,12,42,17.10
2013,07,28,12,43,17.20
2013,07,28,12,44,17.30
2013,07,28,12,45,17.30
2013,07,28,12,46,17.30
2013,07,28,12,47,17.20
2013,07,28,12,48,17.00
2013,07,28,12,49,17.00
2013,07,28,12,50,17.00
2013,07,28,12,51,17.10
2013,07,28,12,52,17.20
2013,07,28,12,53,17.20
2013,07,28,12,54,17.10
2013,07,28,12,55,17.10
2013,07,28,12,56,17.10
2013,07,28,12,57,17.00
2013,07,28,12,58,16.90
2013,07,28,12,59,16.90
2013,07,28,13,00,17.00
2013,07,28,13,01,17.10
2013,07,28,13,02,17.20
2013,07,28,13,03,17.30
2013,07,28,13,04,17.20
2013,07,28,13,05,17.20
2013,07,28,13,06,17.10
2013,07,28,13,07,17.10
2013,07,28,13,08,17.30
2013,07,28,13,09,17.50
2013,07,28,13,10,17.50
2013,07,28,13,11,17.40
2013,07,28,13,12,17.50
2013,07,28,13,13,17.60
2013,07,28,13,14,17.70
2013,07,28,13,15,17.60
2013,07,28,13,16,17.50
2013,07,28,13,17,17.40
2013,07,28,13,18,17.40
2013,07,28,13,19,17.50
2013,07,28,13,20,17.50
2013,07,28,13,21,17.50
2013,07,28,13,22,17.50
2013,07,28,13,23,17.60
2013,07,28,13,24,17.60
2013,07,28,13,25,17.70
2013,07,28,13,26,17.70
2013,07,28,13,27,17.80
2013,07,28,13,28,17.90
2013,07,28,13,29,18.00
2013,07,28,13,30,18.10
2013,07,28,13,31,18.10
2013,07,28,13,32,18.30
2013,07,28,13,33,18.40
2013,07,28,13,34,18.40
2013,07,28,13,35,18.50
2013,07,28,13,36,18.50
2013,07,28,13,37,18.40
2013,07,28,13,38,18.40
2013,07,28,13,39,18.40
2013,07,28,13,40,18.40
2013,07,28,13,41,18.30
2013,07,28,13,42,18.20
2013,07,28,13,43,18.00
2013,07,28,13,44,17.90
2013,07,28,13,45,18.00
2013,07,28,13,46,18.00
2013,07,28,13,47,18.10
2013,07,28,13,48,18.10
2013,07,28,13,49,18.30
2013,07,28,13,50,18.50
2013,07,28,13,51,18.60
2013,07,28,13,52,18.70
2013,07,28,13,53,18.60
2013,07,28,13,54,18.70
2013,07,28,13,55,18.70
2013,07,28,13,56,18.70
2013,07,28,13,57,18.80
2013,07,28,13,58,18.90
2013,07,28,13,59,19.00
2013,07,28,14,00,19.10
2013,07,28,14,01,19.30
2013,07,28,14,02,19.50
2013,07,28,14,03,19.60
2013,07,28,14,04,19.70
2013,07,28,14,05,19.80
2013,07,28,14,06,19.80
2013,07,28,14,07,19.90
2013,07,28,14,08,19.90
2013,07,28,14,09,19.90
2013,07,28,14,10,19.80
2013,07,28,14,11,19.60
2013,07,28,14,12,19.50
2013,07,28,14,13,19.40
2013,07,28,14,14,19.40
2013,07,28,14,15,19.30
2013,07,28,14,16,19.20
2013,07,28,14,17,19.10
2013,07,28,14,18,19.00
2013,07,28,14,19,19.00
2013,07,28,14,20,19.10
2013,07,28,14,21,19.00
2013,07,28,14,22,18.90
2013,07,28,14,23,18.80
2013,07,28,14,24,18.80
2013,07,28,14,25,18.80
2013,07,28,14,26,18.80
2013,07,28,14,27,18.80
2013,07,28,14,28,18.80
2013,07,28,14,29,18.90
2013,07,28,14,30,18.90
2013,07,28,14,31,19.00
2013,07,28,14,32,19.10
2013,07,28,14,33,19.10
2013,07,28,14,34,19.30
2013,07,28,14,35,19.40
2013,07,28,14,36,19.60
2013,07,28,14,37,19.80
2013,07,28,14,38,19.90
2013,07,28,14,39,19.90
2013,07,28,14,40,19.90
2013,07,28,14,41,19.90
2013,07,28,14,42,19.90
2013,07,28,14,43,19.90
2013,07,28,14,44,20.00
2013,07,28,14,45,20.10
2013,07,28,14,46,20.20
2013,07,28,14,47,20.30
2013,07,28,14,48,20.30
2013,07,28,14,49,20.30
2013,07,28,14,50,20.30
2013,07,28,14,51,20.30
2013,07,28,14,52,20.30
2013,07,28,14,53,20.30
2013,07,28,14,54,20.30
2013,07,28,14,55,20.30
2013,07,28,14,56,20.30
2013,07,28,14,57,20.30
2013,07,28,14,58,20.20
2013,07,28,14,59,20.20
2013,07,28,15,00,20.10
2013,07,28,15,01,20.00
2013,07,28,15,02,19.80
2013,07,28,15,03,19.70
2013,07,28,15,04,19.60
2013,07,28,15,05,19.60
2013,07,28,15,06,19.60
2013,07,28,15,07,19.70
2013,07,28,15,08,19.70
2013,07,28,15,09,19.70
2013,07,28,15,10,19.80
2013,07,28,15,11,19.70
2013,07,28,15,12,19.60
2013,07,28,15,13,19.50
2013,07,28,15,14,19.50
2013,07,28,15,15,19.30
2013,07,28,15,16,19.30
2013,07,28,15,17,19.30
2013,07,28,15,18,19.40
2013,07,28,15,19,19.60
2013,07,28,15,20,19.70
2013,07,28,15,21,19.80
2013,07,28,15,22,19.90
2013,07,28,15,23,20.00
2013,07,28,15,24,20.10
2013,07,28,15,25,20.10
2013,07,28,15,26,20.00
2013,07,28,15,27,20.00
2013,07,28,15,28,20.00
2013,07,28,15,29,20.00
2013,07,28,15,30,19.90
2013,07,28,15,31,19.90
2013,07,28,15,32,19.90
2013,07,28,15,33,19.90
2013,07,28,15,34,19.90
2013,07,28,15,35,20.00
2013,07,28,15,36,20.10
2013,07,28,15,37,20.10
2013,07,28,15,38,20.20
2013,07,28,15,39,20.20
2013,07,28,15,40,20.50
2013,07,28,15,41,20.70
2013,07,28,15,42,20.70
2013,07,28,15,43,20.50
2013,07,28,15,44,20.40
2013,07,28,15,45,20.40
2013,07,28,15,46,20.40
2013,07,28,15,47,20.40
2013,07,28,15,48,20.40
2013,07,28,15,49,20.30
2013,07,28,15,50,20.30
2013,07,28,15,51,20.20
2013,07,28,15,52,20.10
2013,07,28,15,53,20.10
2013,07,28,15,54,20.10
2013,07,28,15,55,20.10
2013,07,28,15,56,20.10
2013,07,28,15,57,20.10
2013,07,28,15,58,20.10
2013,07,28,15,59,20.10
2013,07,28,16,00,20.10
2013,07,28,16,01,20.20
2013,07,28,16,02,20.20
2013,07,28,16,03,20.30
2013,07,28,16,04,20.40
2013,07,28,16,05,20.60
2013,07,28,16,06,20.60
2013,07,28,16,07,20.70
2013,07,28,16,08,20.80
2013,07,28,16,09,20.70
2013,07,28,16,10,20.80
2013,07,28,16,11,20.80
2013,07,28,16,12,20.80
2013,07,28,16,13,20.80
2013,07,28,16,14,20.80
2013,07,28,16,15,20.90
2013,07,28,16,16,20.90
2013,07,28,16,17,20.80
2013,07,28,16,18,20.70
2013,07,28,16,19,20.70
2013,07,28,16,20,20.60
2013,07,28,16,21,20.60
2013,07,28,16,22,20.60
2013,07,28,16,23,20.80
2013,07,28,16,24,20.80
2013,07,28,16,25,20.80
2013,07,28,16,26,20.80
2013,07,28,16,27,20.90
2013,07,28,16,28,21.00
2013,07,28,16,29,21.00
2013,07,28,16,30,21.00
2013,07,28,16,31,20.90
2013,07,28,16,32,20.90
2013,07,28,16,33,20.90
2013,07,28,16,34,20.80
2013,07,28,16,35,20.80
2013,07,28,16,36,20.90
2013,07,28,16,37,20.80
2013,07,28,16,38,20.80
2013,07,28,16,39,20.80
2013,07,28,16,40,20.80
2013,07,28,16,41,20.80
2013,07,28,16,42,20.80
2013,07,28,16,43,20.80
2013,07,28,16,44,20.80
2013,07,28,16,45,20.80
2013,07,28,16,46,20.70
2013,07,28,16,47,20.60
2013,07,28,16,48,20.60
2013,07,28,16,49,20.60
2013,07,28,16,50,20.60
2013,07,28,16,51,20.60
2013,07,28,16,52,20.70
2013,07,28,16,53,20.70
2013,07,28,16,54,20.70
2013,07,28,16,55,20.70
2013,07,28,16,56,20.60
2013,07,28,16,57,20.70
2013,07,28,16,58,20.70
2013,07,28,16,59,20.60
2013,07,28,17,00,20.50
2013,07,28,17,01,20.40
2013,07,28,17,02,20.40
2013,07,28,17,03,20.40
2013,07,28,17,04,20.40
2013,07,28,17,05,20.50
2013,07,28,17,06,20.50
2013,07,28,17,07,20.50
2013,07,28,17,08,20.40
2013,07,28,17,09,20.30
2013,07,28,17,10,20.40
2013,07,28,17,11,20.40
2013,07,28,17,12,20.40
2013,07,28,17,13,20.50
2013,07,28,17,14,20.50
2013,07,28,17,15,20.50
2013,07,28,17,16,20.50
2013,07,28,17,17,20.50
2013,07,28,17,18,20.50
2013,07,28,17,19,20.60